• In United Kingdom
  • List of Countries
  • For 7 days
  • Water Temperature
  • Satellite Maps
  • Weather Map
  • Weather Widgets
  • user-avatar
    Login

    Hourly Weather Wiktoria

    Today, 23 June, Friday

    Time Temperature Precipitation Wind Pressure Humidity
    00:00 +5°C° 0 mm 1 mps 755 mmHg 98%
    01:00 +5°C° 0 mm 1 mps 755 mmHg 98%
    02:00 +5°C° 0 mm 1 mps 754 mmHg 98%
    03:00 +5°C° 0 mm 1 mps 754 mmHg 97%
    04:00 +5°C° 0 mm 1 mps 753 mmHg 97%
    05:00 +5°C° 0 mm 1 mps 753 mmHg 97%
    06:00 +5°C° 0 mm 1 mps 753 mmHg 97%
    07:00 +5°C° 0 mm 1 mps 753 mmHg 97%
    08:00 +6°C° 0 mm 1 mps 753 mmHg 91%
    09:00 +8°C° 0 mm 1 mps 753 mmHg 84%
    10:00 +9°C° 0 mm 1 mps 753 mmHg 79%
    11:00 +11°C° 0 mm 1 mps 752 mmHg 72%
    12:00 +13°C° 0 mm 1 mps 751 mmHg 65%
    13:00 +14°C° 0 mm 1 mps 751 mmHg 57%
    14:00 +14°C° 0 mm 1 mps 750 mmHg 57%
    15:00 +14°C° 0 mm 1 mps 750 mmHg 57%
    16:00 +13°C° 0 mm 2 mps 750 mmHg 57%
    17:00 +11°C° 0 mm 1 mps 750 mmHg 64%
    18:00 +9°C° 0 mm 1 mps 750 mmHg 72%
    19:00 +8°C° 0 mm 1 mps 750 mmHg 80%
    20:00 +7°C° 0 mm 1 mps 750 mmHg 82%
    21:00 +7°C° 0 mm 1 mps 750 mmHg 84%
    22:00 +7°C° 0 mm 1 mps 750 mmHg 84%
    23:00 +6°C° 0 mm 1 mps 750 mmHg 85%

    Tomorrow, 24 June, Saturday

    Time Temperature Precipitation Wind Pressure Humidity
    00:00 +6°C° 0 mm 1 mps 750 mmHg 86%
    01:00 +5°C° 0 mm 1 mps 750 mmHg 87%
    02:00 +5°C° 0 mm 1 mps 750 mmHg 90%
    03:00 +5°C° 0 mm 1 mps 750 mmHg 93%
    04:00 +4°C° 0 mm 1 mps 750 mmHg 96%
    05:00 +4°C° 0 mm 1 mps 750 mmHg 97%
    06:00 +4°C° 0 mm 1 mps 750 mmHg 98%
    07:00 +4°C° 0 mm 1 mps 751 mmHg 99%
    08:00 +6°C° 0 mm 1 mps 751 mmHg 91%
    09:00 +8°C° 0 mm 1 mps 752 mmHg 84%
    10:00 +10°C° 0 mm 1 mps 752 mmHg 76%
    11:00 +11°C° 0 mm 1 mps 752 mmHg 68%
    12:00 +12°C° 0 mm 1 mps 752 mmHg 60%
    13:00 +13°C° 0 mm 1 mps 751 mmHg 51%
    14:00 +12°C° 0 mm 1 mps 751 mmHg 54%
    15:00 +12°C° 0 mm 1 mps 751 mmHg 56%
    16:00 +11°C° 0 mm 1 mps 751 mmHg 59%
    17:00 +10°C° 0 mm 1 mps 751 mmHg 61%
    18:00 +10°C° 0 mm 1 mps 752 mmHg 64%
    19:00 +8°C° 0 mm 0 mps 752 mmHg 66%
    20:00 +7°C° 0 mm 0 mps 752 mmHg 67%
    21:00 +7°C° 0 mm 0 mps 752 mmHg 68%
    22:00 +7°C° 0 mm 0 mps 752 mmHg 69%
    23:00 +7°C° 0 mm 1 mps 752 mmHg 75%

    Day after tomorrow, 25 June, Sunday

    Time Temperature Precipitation Wind Pressure Humidity
    00:00 +5°C° 0 mm 1 mps 752 mmHg 82%
    01:00 +4°C° 0 mm 1 mps 752 mmHg 88%
    02:00 +4°C° 0 mm 1 mps 752 mmHg 91%
    03:00 +3°C° 0 mm 1 mps 752 mmHg 93%
    04:00 +3°C° 0 mm 1 mps 752 mmHg 95%
    05:00 +3°C° 0 mm 1 mps 752 mmHg 96%
    06:00 +2°C° 0 mm 1 mps 752 mmHg 96%
    07:00 +2°C° 0 mm 1 mps 752 mmHg 97%
    08:00 +4°C° 0 mm 1 mps 752 mmHg 88%
    09:00 +7°C° 0 mm 1 mps 753 mmHg 80%
    10:00 +9°C° 0 mm 1 mps 753 mmHg 71%
    11:00 +10°C° 0 mm 1 mps 753 mmHg 70%
    12:00 +10°C° 0 mm 1 mps 752 mmHg 68%
    13:00 +10°C° 0 mm 2 mps 752 mmHg 67%
    14:00 +10°C° 0 mm 2 mps 752 mmHg 67%
    15:00 +12°C° 0 mm 2 mps 752 mmHg 67%
    16:00 +12°C° 0 mm 2 mps 752 mmHg 67%
    17:00 +10°C° 0 mm 1 mps 752 mmHg 76%
    18:00 +8°C° 0 mm 1 mps 752 mmHg 85%
    19:00 +7°C° 0 mm 1 mps 753 mmHg 94%
    20:00 +6°C° 0 mm 1 mps 753 mmHg 95%
    21:00 +6°C° 0 mm 1 mps 753 mmHg 96%
    22:00 +6°C° 0 mm 1 mps 754 mmHg 98%
    23:00 +6°C° 0 mm 1 mps 754 mmHg 98%

    26 June, Monday

    Time Temperature Precipitation Wind Pressure Humidity
    00:00 +5°C° 0 mm 1 mps 754 mmHg 98%
    01:00 +5°C° 0 mm 1 mps 754 mmHg 98%
    02:00 +5°C° 0 mm 1 mps 754 mmHg 99%
    03:00 +4°C° 0 mm 1 mps 754 mmHg 99%
    04:00 +3°C° 0 mm 0 mps 754 mmHg 99%
    05:00 +2°C° 0 mm 0 mps 755 mmHg 99%
    06:00 +2°C° 0 mm 0 mps 755 mmHg 99%
    07:00 +1°C° 0 mm 0 mps 756 mmHg 99%
    08:00 +4°C° 0 mm 0 mps 756 mmHg 93%
    09:00 +6°C° 0 mm 0 mps 757 mmHg 87%
    10:00 +9°C° 0 mm 0 mps 757 mmHg 81%
    11:00 +10°C° 0 mm 0 mps 757 mmHg 72%
    12:00 +13°C° 0 mm 1 mps 757 mmHg 63%
    13:00 +14°C° 0 mm 1 mps 757 mmHg 54%
    14:00 +14°C° 0 mm 1 mps 757 mmHg 57%
    15:00 +12°C° 0 mm 0 mps 757 mmHg 61%
    16:00 +12°C° 0 mm 0 mps 757 mmHg 64%
    17:00 +10°C° 0 mm 0 mps 757 mmHg 68%
    18:00 +9°C° 0 mm 0 mps 757 mmHg 72%
    19:00 +8°C° 0 mm 0 mps 758 mmHg 76%
    20:00 +8°C° 0 mm 0 mps 758 mmHg 76%
    21:00 +8°C° 0 mm 0 mps 758 mmHg 77%
    22:00 +8°C° 0 mm 0 mps 759 mmHg 77%
    23:00 +6°C° 0 mm 0 mps 758 mmHg 84%

    27 June, Tuesday

    Time Temperature Precipitation Wind Pressure Humidity
    00:00 +4°C° 0 mm 0 mps 758 mmHg 90%
    01:00 +3°C° 0 mm 0 mps 758 mmHg 97%
    02:00 +2°C° 0 mm 0 mps 758 mmHg 97%
    03:00 +1°C° 0 mm 0 mps 757 mmHg 98%
    04:00 +1°C° 0 mm 0 mps 757 mmHg 99%
    05:00 +1°C° 0 mm 0 mps 758 mmHg 97%
    06:00 +1°C° 0 mm 0 mps 758 mmHg 96%
    07:00 +2°C° 0 mm 0 mps 758 mmHg 95%
    08:00 +4°C° 0 mm 0 mps 758 mmHg 86%
    09:00 +7°C° 0 mm 0 mps 759 mmHg 77%
    10:00 +10°C° 0 mm 0 mps 759 mmHg 67%
    11:00 +12°C° 0 mm 1 mps 758 mmHg 62%
    12:00 +13°C° 0 mm 1 mps 758 mmHg 56%
    13:00 +14°C° 0 mm 1 mps 757 mmHg 51%
    14:00 +13°C° 0 mm 1 mps 757 mmHg 54%
    15:00 +12°C° 0 mm 0 mps 757 mmHg 57%
    16:00 +11°C° 0 mm 0 mps 756 mmHg 61%
    17:00 +9°C° 0 mm 0 mps 757 mmHg 70%
    18:00 +7°C° 0 mm 0 mps 757 mmHg 78%
    19:00 +6°C° 0 mm 1 mps 757 mmHg 87%
    20:00 +6°C° 0 mm 1 mps 757 mmHg 86%
    21:00 +6°C° 0 mm 1 mps 757 mmHg 85%
    22:00 +6°C° 0 mm 1 mps 758 mmHg 85%
    23:00 +6°C° 0 mm 1 mps 758 mmHg 87%

    28 June, Wednesday

    Time Temperature Precipitation Wind Pressure Humidity
    00:00 +5°C° 0 mm 1 mps 757 mmHg 89%
    01:00 +5°C° 0 mm 1 mps 757 mmHg 91%
    02:00 +5°C° 0 mm 1 mps 757 mmHg 92%
    03:00 +5°C° 0 mm 1 mps 757 mmHg 93%
    04:00 +5°C° 0 mm 1 mps 757 mmHg 94%
    05:00 +5°C° 0 mm 1 mps 757 mmHg 93%
    06:00 +5°C° 0 mm 1 mps 757 mmHg 93%
    07:00 +5°C° 0 mm 1 mps 758 mmHg 92%
    08:00 +6°C° 0 mm 1 mps 758 mmHg 86%
    09:00 +8°C° 0 mm 1 mps 758 mmHg 79%
    10:00 +8°C° 0 mm 0 mps 758 mmHg 72%
    11:00 +10°C° 0 mm 0 mps 757 mmHg 67%
    12:00 +11°C° 0 mm 0 mps 757 mmHg 61%
    13:00 +13°C° 0 mm 0 mps 756 mmHg 55%
    14:00 +13°C° 0 mm 0 mps 756 mmHg 57%
    15:00 +13°C° 0 mm 0 mps 756 mmHg 58%
    16:00 +12°C° 0 mm 0 mps 756 mmHg 59%
    17:00 +9°C° 0 mm 0 mps 756 mmHg 72%
    18:00 +6°C° 0 mm 0 mps 756 mmHg 85%
    19:00 +2°C° 0 mm 0 mps 756 mmHg 98%
    20:00 +2°C° 0 mm 0 mps 757 mmHg 98%
    21:00 +2°C° 0 mm 0 mps 757 mmHg 98%
    22:00 +2°C° 0 mm 0 mps 757 mmHg 98%
    23:00 +3°C° 0 mm 0 mps 757 mmHg 96%
    Show more